Location: *
(2.5500°S, 65.9667°W)
Time: 12:37:57
(UTC+00:00)

XW-2D - Pass Details

Date: 07 July 2022
Orbit: 495 x 515 km, 97.5° (Epoch: 15 August)

Event Time Altitude Azimuth Distance (km) Brightness Sun altitude
Rises 09:14:33 0° 43° (NE) 2,604 ? -18.1°
Reaches altitude 10° 09:17:28 10° 69° (ENE) 1,718 ? -17.4°
Maximum altitude 09:19:28 14° 102° (ESE) 1,476 ? -17.0°
Drops below altitude 10° 09:21:28 10° 135° (SE) 1,717 ? -16.5°
Sets 09:24:21 0° 160° (SSE) 2,600 ? -15.9°
